You are not logged in, Click here to log in
ICAO: RCFN Country: 臺灣臺東縣臺東市
Latitude: 22.7571 Longitude: 121.106
Total Arrivals: 33 Total Departures: 44
Latest Arrival: FS08 (RCYU-RCFN)CHANG SHENG. HSIUNG Latest Departure: B78726 (RCFN-RCSS)CHU. CHUHAO
Scenery:
METAR : RCFN 231300Z 27002KT 9999 FEW015 SCT035 BKN070 27/26 Q1009 NOSIG RMK A2980

臺東機場TTT